EW9507 Weather Reports


Display with metric or nautical units.
time (UTC)temp
F
wind
direction
speed
MPH
gust
MPH
rain 1hr
in
rain 24hr
in
rain mn
in
humidity
%
barometer
mb
20260505163056 39 3 20.0 28.0 0.00 0.00 0.00 47 1013.4
20260505161551 38 9 12.0 25.0 0.00 0.00 0.00 49 1013.3
20260505153101 38 358 16.0 21.0 0.00 0.00 0.00 50 1013.8
20260505151543 37 4 10.0 18.0 0.00 0.00 0.00 55 1013.8
20260505124550 31 324 3.0 4.0 0.00 0.00 0.00 85 1013.0
20260505123056 31 84 2.0 3.0 0.00 0.00 0.00 87 1012.7
20260505121544 30 1 1.0 3.0 0.00 0.00 0.00 86 1012.4
20260505120051 31 15 1.0 4.0 0.00 0.00 0.00 87 1012.2
20260505114534 30 314 2.0 3.0 0.00 0.00 0.00 87 1011.9
20260505113031 30 295 1.0 2.0 0.00 0.00 0.00 86 1011.7
20260505111532 30 41 1.0 3.0 0.00 0.00 0.00 85 1011.5
20260505101512 32 295 3.0 5.0 0.00 0.00 0.00 82 1011.2
20260505100004 34 290 2.0 4.0 0.00 0.00 0.00 80 1011.4
20260505094529 35 317 2.0 4.0 0.00 0.00 0.00 80 1011.4
20260505093023 36 314 3.0 8.0 0.00 0.00 0.00 79 1011.5
20260505091519 37 323 3.0 9.0 0.00 0.00 0.00 78 1011.4
20260505090016 37 342 3.0 7.0 0.00 0.00 0.00 78 1011.4
20260505084514 37 351 4.0 10.0 0.00 0.00 0.00 78 1011.4
20260505083018 38 13 9.0 16.0 0.00 0.00 0.00 76 1011.5
20260505081501 38 354 13.0 22.0 0.00 0.00 0.00 72 1011.6
20260505074547 40 351 11.0 19.0 0.00 0.00 0.00 66 1011.4
20260505073051 41 6 13.0 18.0 0.00 0.00 0.00 61 1011.4
20260505071544 41 310 5.0 9.0 0.00 0.00 0.00 64 1011.0
20260505070040 41 299 4.0 7.0 0.00 0.00 0.00 63 1011.0
20260505064526 41 285 3.0 5.0 0.00 0.00 0.00 61 1011.0
20260505063032 41 308 3.0 6.0 0.00 0.00 0.00 60 1011.0
20260505061528 41 330 3.0 7.0 0.00 0.00 0.00 60 1011.1
20260505060020 41 310 4.0 6.0 0.00 0.00 0.00 60 1010.9
20260505054510 41 338 4.0 8.0 0.00 0.00 0.00 61 1010.9
20260505053006 41 325 4.0 6.0 0.00 0.00 0.00 60 1011.0
20260505051506 42 320 5.0 7.0 0.00 0.00 0.00 59 1011.3
20260505041541 42 321 3.0 7.0 0.00 0.00 0.00 56 1011.1
20260505040030 43 322 5.0 7.0 0.00 0.00 0.00 55 1011.1
20260505034528 43 330 4.0 7.0 0.00 0.00 0.00 54 1011.1
20260505033023 43 312 4.0 5.0 0.00 0.00 0.00 53 1011.0
20260505031520 44 319 3.0 5.0 0.00 0.00 0.00 52 1010.8
20260505030016 44 344 3.0 7.0 0.00 0.00 0.00 51 1010.4
20260505024513 44 354 3.0 12.0 0.00 0.00 0.00 50 1010.3
20260505023041 44 9 6.0 13.0 0.00 0.00 0.00 49 1010.2
20260505021539 45 356 8.0 11.0 0.00 0.00 0.00 49 1010.0
20260505020004 45 9 6.0 15.0 0.00 0.00 0.00 52 1009.7
20260505014504 45 3 10.0 18.0 0.00 0.00 0.00 52 1009.6
20260505013058 45 342 8.0 18.0 0.00 0.00 0.00 52 1009.4
20260505011655 45 6 14.0 21.0 0.00 0.00 0.00 52 1009.3
20260505010100 45 4 15.0 20.0 0.00 0.00 0.00 51 1009.2
20260505004554 45 13 8.0 14.0 0.00 0.00 0.00 53 1009.1
20260505003056 45 341 9.0 16.0 0.00 0.00 0.00 56 1008.9
20260505001548 44 4 11.0 16.0 0.00 0.00 0.00 57 1009.0
20260505000051 45 356 15.0 22.0 0.00 0.00 0.00 55 1009.0
20260504234546 46 6 11.0 22.0 0.00 0.00 0.00 54 1008.8
20260504233040 46 346 13.0 26.0 0.00 0.00 0.00 53 1008.5
20260504231538 46 336 13.0 19.0 0.00 0.00 0.00 51 1008.4
20260504230036 47 343 12.0 19.0 0.00 0.00 0.00 50 1008.3
20260504224537 47 4 13.0 23.0 0.00 0.00 0.00 47 1007.9
20260504223006 48 343 14.0 25.0 0.00 0.00 0.00 47 1007.8
20260504221505 47 347 13.0 26.0 0.00 0.00 0.00 47 1008.0
20260504220035 47 16 13.0 24.0 0.00 0.00 0.00 46 1007.9
20260504214533 48 1 11.0 19.0 0.00 0.00 0.00 47 1007.8
20260504213006 48 13 13.0 24.0 0.00 0.00 0.00 48 1007.8
20260504211501 49 4 11.0 22.0 0.00 0.00 0.00 50 1007.7
20260504210101 49 354 11.0 20.0 0.00 0.00 0.00 50 1007.9
20260504204604 49 358 10.0 20.0 0.00 0.00 0.00 49 1007.9
20260504203107 49 331 12.0 22.0 0.00 0.00 0.00 49 1008.0
20260504201608 50 316 11.0 20.0 0.00 0.00 0.00 49 1008.0
20260504200053 49 323 11.0 21.0 0.00 0.00 0.00 51 1008.1
20260504194555 48 314 11.0 20.0 0.00 0.00 0.00 52 1008.1
20260504193051 48 340 11.0 20.0 0.00 0.00 0.00 50 1008.1
20260504191606 49 343 11.0 21.0 0.00 0.00 0.00 52 1008.0
20260504190054 49 322 12.0 21.0 0.00 0.00 0.00 51 1008.1
20260504184549 49 6 11.0 18.0 0.00 0.00 0.00 51 1008.0
20260504183040 48 330 11.0 21.0 0.00 0.00 0.00 53 1008.2
20260504181538 48 356 11.0 19.0 0.00 0.00 0.00 52 1008.2
20260504180005 47 13 12.0 19.0 0.00 0.00 0.00 54 1008.2
20260504174504 48 342 10.0 19.0 0.00 0.00 0.00 53 1008.2
20260504173002 47 358 13.0 22.0 0.00 0.00 0.00 54 1008.1
20260504171558 48 350 14.0 24.0 0.00 0.00 0.00 54 1007.9